Regional Weather Roundup
Issued by NWS

Home | Current Version | Previous Version | Text Only | Print | Product List | Glossary On
Versions: 1 2 3 4 5 6 7 8 9 10 11 12 13 14 15 16 17 18 19 20 21 22 23 24 25 26 27 28 29 30 31 32 33 34 35 36 37 38 39 40 41 42 43 44 45 46 47 48 49 50
000
ASUS43 KLSX 240107
RWRMO

WEATHER SUMMARY FOR MISSOURI
NATIONAL WEATHER SERVICE SPRINGFIELD MO
800 PM CDT WED APR 23 2014

NOTE: "FAIR" INDICATES FEW OR NO CLOUDS BELOW 12,000 FEET WITH NO
       SIGNIFICANT WEATHER AND/OR OBSTRUCTIONS TO VISIBILITY.
       CURRENT SKY AND/OR WEATHER CONDITIONS ARE NOT AVAILABLE FOR
       CHILLICOTHE AND FARMINGTON.

MOZ001>031-035>038-043-044-053-054-240200-
...NORTHERN AND WESTERN MISSOURI...

CITY           SKY/WX    TMP DP  RH WIND       PRES   REMARKS
KANSAS CTY INT MOCLDY    69  42  37 SE18G28   29.69F
KANSAS C DTWN  PTCLDY    73  43  33 SE17G23   29.69F
LEE`S SUMMIT   PTCLDY    71  42  35 SE15G23   29.72F
ST JOSEPH      MOCLDY    68  42  38 SE17G25   29.67F
CHILLICOTHE      N/A     65  38  36 SE15G22   29.78F
KIRKSVILLE     CLOUDY    57  36  45 SE21G28   29.85F

$$
MOZ066>068-077>081-088>096-101>105-240200-
...SOUTHWEST MISSOURI...

CITY           SKY/WX    TMP DP  RH WIND       PRES   REMARKS
SPRINGFIELD    CLEAR     72  41  32 SE16      29.82F
JOPLIN         PTCLDY    74  44  34 S13       29.77F

$$
MOZ032>034-039>042-045>050-055>058-069>072-240200-
...CENTRAL MISSOURI...

CITY           SKY/WX    TMP DP  RH WIND       PRES   REMARKS
COLUMBIA       MOCLDY    60  39  45 E13       29.88F
JEFFERSON CITY PTCLDY    64  38  38 E13       29.87F
ROLLA          PTCLDY    61  40  45 E9        29.89S
SEDALIA        PTCLDY    67  39  35 E14       29.81F
WHITEMAN AFB   PTCLDY    67  33  27 SE12      29.78F
OSAGE BEACH    PTCLDY    72  34  25 SE6       29.86F

$$
MOZ051-052-059>065-240200-
...EAST CENTRAL MISSOURI...

CITY           SKY/WX    TMP DP  RH WIND       PRES   REMARKS
ST LOUIS INTL  CLOUDY    62  34  35 E13       29.98S
SPIRIT OF STL  CLOUDY    60  34  37 E9        29.95S
ST CHARLES     MOCLDY    59  35  40 E13       29.97F

$$
MOZ072>076-082>087-097>100-106>115-240200-
...SOUTH CENTRAL AND SOUTHEAST MISSOURI...

CITY           SKY/WX    TMP DP  RH WIND       PRES   REMARKS
CAPE GIRARDEAU CLEAR     60  43  53 SE7       29.98R
FARMINGTON     PTCLDY    61  37  41 E7        29.98S
POPLAR BLUFF   CLEAR     64  40  41 E5        29.96R
WEST PLAINS    CLEAR     66  38  35 SE9       29.93S

$$



USA.gov is the U.S. government's official web portal to all federal, state and local government web resources and services.